Temp
6 7 6 8 10 10 10 10 9 8 8 8 8 8 8 8 8 8 8 7 8 8
5 6 6 5 7 10 10 10 9 9 9 8 8 8 8 8 8 7 7 7 7 7
2 4 6 5 6 6 9 10 9 9 8 8 8 8 8 8 7 7 7 6 6 6
-2 0 3 4 5 4 6 7 8 9 9 8 8 8 8 8 7 7 7 6 6 6
-5 -3 -0 1 3 3 3 4 5 7 7 7 8 7 7 7 6 6 6 6 5 5
-7 -6 -4 -2 1 1 2 2 3 3 5 6 6 5 5 5 5 5 4 4 4 4
-8 -7 -6 -5 -3 -1 0 1 1 1 1 3 4 3 3 3 2 2 1 2 3 2
-9 -8 -7 -6 -5 -4 -3 -1 -0 0 -1 -0 1 2 1 1 -0 0 1 0 -0 0
-9 -9 -8 -7 -6 -5 -4 -3 -3 -2 -2 -2 -2 -2 -1 -1 -1 -2 -1 -2 -2 -1
-10 -9 -9 -8 -7 -7 -6 -5 -4 -4 -3 -3 -4 -4 -4 -4 -3 -3 -3 -2 -2 -2
-11 -10 -9 -9 -8 -7 -7 -6 -5 -5 -4 -4 -4 -4 -4 -3 -3 -4 -4 -4 -3 -3
-13 -11 -10 -9 -9 -8 -7 -7 -6 -6 -5 -5 -5 -5 -5 -5 -4 -4 -4 -4 -4 -4
-13 -13 -12 -10 -10 -9 -8 -7 -7 -6 -6 -6 -6 -5 -5 -5 -5 -5 -5 -5 -5 -5
-14 -13 -13 -12 -10 -10 -9 -8 -8 -7 -7 -7 -7 -7 -6 -6 -6 -6 -6 -6 -7 -6
Height
1405 1413 1412 1418 1421 1427 1432 1437 1443 1449 1456 1461 1467 1472 1477 1482 1487 1493 1499 1503 1507 1512
1401 1403 1409 1413 1417 1420 1426 1433 1439 1444 1450 1456 1462 1468 1474 1479 1485 1491 1496 1501 1505 1509
1396 1398 1402 1407 1408 1415 1419 1425 1432 1438 1445 1451 1457 1463 1469 1475 1481 1486 1491 1496 1501 1505
1394 1396 1396 1401 1404 1408 1414 1419 1424 1431 1437 1445 1452 1458 1463 1469 1475 1481 1487 1493 1498 1502
1396 1393 1394 1396 1398 1403 1406 1410 1418 1423 1431 1438 1443 1452 1457 1463 1470 1476 1480 1487 1493 1498
1396 1393 1396 1393 1393 1401 1402 1406 1409 1420 1425 1429 1435 1444 1452 1457 1463 1470 1477 1483 1488 1494
1404 1401 1399 1396 1400 1391 1396 1399 1408 1413 1421 1425 1428 1438 1445 1450 1458 1463 1471 1480 1485 1490
1413 1406 1406 1399 1396 1397 1402 1400 1404 1407 1417 1422 1426 1426 1437 1442 1449 1460 1464 1474 1480 1485
1417 1412 1411 1403 1404 1403 1404 1398 1404 1407 1414 1417 1420 1424 1431 1442 1445 1455 1458 1468 1476 1480
1418 1417 1412 1409 1410 1405 1399 1401 1409 1409 1413 1420 1423 1427 1431 1438 1444 1450 1459 1465 1470 1475
1426 1423 1420 1418 1415 1409 1415 1413 1410 1414 1416 1424 1425 1427 1435 1436 1439 1452 1458 1464 1466 1472
1432 1428 1424 1424 1420 1420 1419 1417 1413 1417 1423 1427 1428 1431 1432 1438 1441 1449 1457 1461 1466 1472
1436 1431 1429 1427 1424 1423 1422 1421 1423 1425 1426 1429 1428 1434 1435 1440 1446 1451 1456 1462 1467 1473
1438 1434 1434 1433 1431 1431 1430 1427 1428 1429 1432 1433 1436 1437 1440 1445 1450 1453 1458 1463 1467 1472
Wind_Speed
30 35 40 45 45 46 46 46 45 43 40 39 39 40 39 38 37 36 34 33 31 24
26 32 35 40 46 47 46 45 44 43 42 40 39 38 37 37 36 34 32 34 31 25
9 21 34 38 43 45 48 47 46 46 43 42 41 39 38 37 36 34 33 34 32 27
4 10 23 34 43 42 47 49 49 48 47 45 41 40 39 38 37 36 35 34 32 29
10 2 9 19 32 40 41 45 50 50 49 47 44 42 41 40 38 37 36 35 34 30
21 16 5 8 19 33 34 41 44 48 49 48 48 43 41 39 39 36 32 32 30 29
25 21 15 7 8 16 24 31 38 42 42 45 47 45 40 39 38 36 34 30 29 27
24 22 18 15 11 9 16 21 28 36 40 42 43 43 42 38 33 35 34 32 30 28
26 23 21 20 17 13 13 14 15 20 27 30 32 35 34 35 35 31 29 31 32 29
28 26 24 21 17 17 17 14 15 16 18 21 23 26 31 32 32 31 33 30 27 24
26 26 23 21 19 22 15 15 17 16 16 18 18 18 23 24 25 25 22 21 20 20
24 24 22 22 22 17 19 18 18 18 21 21 21 19 20 22 23 23 22 20 20 20
20 22 21 19 19 18 17 19 16 17 20 19 21 15 19 20 22 23 22 21 21 21
19 19 18 16 15 13 13 15 16 19 16 14 12 11 14 15 15 17 22 24 24 23
Wind_Direction
207 206 207 220 214 208 203 200 199 201 201 200 201 201 200 200 198 197 197 197 197 197
216 208 208 205 214 214 211 208 203 203 200 200 202 201 201 203 202 198 197 198 197 196
230 220 210 209 212 212 210 210 207 204 202 201 202 201 201 201 201 199 196 196 198 199
325 235 211 214 210 211 211 209 208 206 203 203 202 201 200 200 200 200 200 198 201 203
40 356 215 215 215 219 215 208 204 204 204 202 200 200 198 198 199 198 198 200 203 203
49 51 41 217 215 217 217 212 209 205 204 203 201 202 199 198 197 196 200 200 201 202
45 50 55 75 194 208 220 221 213 207 204 200 198 198 201 198 202 198 195 197 199 204
38 52 58 69 88 149 190 197 210 209 210 206 206 202 203 200 193 198 197 205 212 212
40 44 55 64 72 103 133 149 180 194 200 196 193 193 193 197 192 195 196 191 184 186
43 42 45 56 69 72 85 113 146 156 176 186 181 180 178 178 179 178 182 196 207 209
40 44 48 54 66 76 83 103 115 126 138 154 155 167 182 181 179 186 192 191 188 193
34 41 45 52 56 72 81 91 95 116 129 132 135 152 156 163 163 169 172 173 177 181
27 40 40 46 52 59 73 87 102 108 131 130 123 142 147 153 157 158 159 161 163 167
25 36 38 45 54 62 71 82 97 92 118 119 112 123 150 157 165 164 160 156 155 153